ARIANE 5 R/B, 45248

Orbit data source: Space-Track

ARIANE 5 R/B, 45248 is space debris in HEO originally from a launch on Tue, 18 Feb 2020 UTC launched from the French Guiana (FRGUI). Debris objects in space refer to the collection of defunct objects orbiting the Earth. Examples of debris include non-operational satellites, rocket bodies, and fragments generated from explosions, collisions, or faulty payload assembly.

Loading next visibility...
Identifier
45248, 2020-013D
Orbit
HEO
Country
Flag of FRFR
Related business
Manufacturer
ArianeGroup
Mission
Spacecraft
Bus & Motor
ESC-A, Unknown motor
Mass
~5,000 kg wet, ~5,000 kg dry
Launch date (UTC)
2020-02-18 (6 years ago)
Launch vehicle
Unknown
Launch site
French Guiana (FRGUI)
Object type
Payload
Rocket body
Debris
Shape & HBR
Cyl + 1 Nozzle, 3.5 m
Radar Cross Section
41.627 m², Large (>1 m²)

Expand to show TLE details & history
Last TLE update: 15 hours ago

TLE from 15 hours ago
0 ARIANE 5 R/B
1 45248U 20013D   25291.99789630  .00003373  00000-0  10833-2 0  9992
2 45248   5.2576 137.0375 7163139 142.0245 301.2582  2.42380604 48635
Epoch: 2025-10-18T23:56Z
TLE epoch observation values (Epoch: 2025-10-18T23:56:58.240Z)
Latitude
-0.00012°
Longitude
110.33419°
Altitude
19,695.486 km
Speed
3.681 km/s
True Right ascension
09h 09m 11s
True Declination
0° 00' 00"
Sunlit
Object was in daylight at epoch
Visualization orbit readout
Latitude
Unknown
Longitude
Unknown
Altitude
Unknown
Speed
Unknown
Apparent Right ascension
Unknown
Apparent Declination
Unknown
Sunlit
N/A
Visualization observer readout
Local Sidereal Time
10:08:47
Azimuth
Unknown
Elevation
Unknown
Doppler factor
Unknown
Orbital elements
Apogee altitude
33,810.353 km
Perigee altitude
264.538 km
Semi-major axis
23,415.583 km
Eccentricity
0.71631
Inclination
5.2576°
RAAN
137.0375°
Arg. of periapsis
142.0245°
True anomaly
218.14068°
Mean anomaly
301.2582°
Eccentric anomaly
260.75012°
Mean motion
0.60574 °/min
Orbital period
594.32 mins
BSTAR
0.0010833
Loading maneuver chart data...
Computing Atmospheric mass density...
Loading historical data...
Loading historical data...
Loading historical data...
Loading historical data...
Loading historical data...
Loading historical data...
Loading historical data...
Other satellites on launch #13 in the year 2020 (2020-02-18 UTC)

Documentation

Showing up to 5 results
|